Tracking 23114 objects as of 14-May-2021
HD Live streaming from Space Station
objects crossing your sky now

SL-3 R/B

Track SL-3 R/B now!
10-day predictions


NORAD ID: 14453
Int'l Code: 1983-109B
Perigee: 741.9 km
Apogee: 891.0 km
Inclination: 81.2 °
Period: 101.1 minutes
Semi major axis: 7187 km
RCS: 6.0066 m2 (large)
Launch date: October 28, 1983
Source: Commonwealth of Independent States (former USSR) (CIS)
Launch site: PLESETSK MISSILE AND SPACE COMPLEX (PKMTR)

Note: This is a ROCKET BODY
aabbcc
Your satellite tracking list
Your tracking list is empty




NASA's NSSDC Master Catalog

Two Line Element Set (TLE):
1 14453U 83109B   21133.46208780  .00000013  00000-0  45305-6 0  9990
2 14453  81.1645 111.3882 0103694 257.0962 101.8618 14.24748382950543
Source of the keplerian elements: AFSPC